Weather History for 13615 - December, 2013

Change the Weather History Date:

Sunday, December 1, 2013

  Actual Average Record
Temperature  
Mean Temperature 58 °F -  
Max Temperature 72 °F 53 °F - ()
Min Temperature 45 °F 37 °F - ()
Degree Days  
Heating Degree Days 6    
Growing Degree Days 8 (Base 50)    
Moisture  
Dew Point 43 °F    
Average Humidity 60    
Maximum Humidity 93    
Minimum Humidity 25    
Precipitation  
Precipitation 0.00 in -13.12 in - ()
Sea Level Pressure  
Sea Level Pressure 29.87 in    
Wind  
Wind Speed 4 mph ()    
Max Wind Speed 16 mph    
Max Gust Speed -    
Visibility 6.3 miles    
Events Rain    
T = Trace of Precipitation, MM = Missing Value Source: Averaged Metar Reports

Daily Weather History Graph

Daily Weather History Graph

Search for Another Location

Airport or City:

Trip Planner

Search our weather history database for the weather conditions in past years. The results will help you decide how hot, cold, wet, or windy it might be!

Date:

Astronomy

Dec. 01, 2013 Rise Set
Actual Time 6:47 AM CET 4:12 PM CET
Civil Twilight 6:17 AM CET 4:43 PM CET
Nautical Twilight 5:42 AM CET 5:17 PM CET
Astronomical Twilight 5:09 AM CET 5:50 PM CET
Moon 4:44 AM CET (12/1) 3:08 PM CET (12/1)
Length of Visible Light 10h 26m
Length of Day
9h 24m
Waning Crescent, 3% of the Moon is Illuminated
Dec 1
Waning Crescent
Dec 3
New
Dec 9
First Quarter
Dec 17
Full
Dec 25
Last Quarter

Hourly Weather History & Observations

Time (CET) Temp. Windchill Dew Point Humidity Pressure Visibility Wind Dir Wind Speed Gust Speed Precip Events Conditions
12:20 AM 46.4 °F 44.3 °F 44.6 °F 93% 29.92 in 5.6 mi NW 4.6 mph - N/A Rain Light Rain
12:50 AM 48.2 °F - 46.4 °F 93% 29.92 in - Variable 2.3 mph - N/A   Overcast
1:00 AM 47 °F - 45 °F 92% 29.94 in 7 mi West 2.2 mph - -   Overcast
1:20 AM 48.2 °F - 46.4 °F 93% 29.92 in - NNW 3.5 mph - N/A   Overcast
1:50 AM 48.2 °F - 46.4 °F 93% 29.92 in 6.2 mi NE 3.5 mph - N/A Rain Light Rain
2:20 AM 48.2 °F - 46.4 °F 93% 29.89 in 6.2 mi Calm Calm - N/A Rain Light Rain
2:50 AM 46.4 °F - 44.6 °F 93% 29.89 in 6.2 mi Calm Calm - N/A Rain Light Rain
3:20 AM 48.2 °F - 46.4 °F 93% 29.89 in 6.2 mi Calm Calm - N/A   Mostly Cloudy
3:50 AM 46.4 °F - 44.6 °F 93% 29.86 in 6.2 mi South 2.3 mph - N/A   Mostly Cloudy
4:00 AM 47 °F - 46 °F 92% 29.88 in 9 mi SSW 2.2 mph - -   Partly Cloudy
4:20 AM 48.2 °F - 44.6 °F 87% 29.86 in 6.2 mi South 4.6 mph - N/A   Mostly Cloudy
4:50 AM 48.2 °F - 44.6 °F 87% 29.86 in 6.2 mi Calm Calm - N/A   Mostly Cloudy
5:20 AM 48.2 °F - 46.4 °F 93% 29.86 in 6.2 mi ESE 2.3 mph - N/A   Mostly Cloudy
5:50 AM 46.4 °F - 44.6 °F 93% 29.86 in 6.2 mi Variable 2.3 mph - N/A   Mostly Cloudy
6:20 AM 48.2 °F - 46.4 °F 93% 29.86 in 6.2 mi SSW 2.3 mph - N/A   Mostly Cloudy
6:50 AM 48.2 °F - 46.4 °F 93% 29.86 in 6.2 mi Calm Calm - N/A   Overcast
7:00 AM 48 °F - 46 °F 89% 29.87 in 9 mi West 2.2 mph - -   Mostly Cloudy
7:20 AM 48.2 °F - 46.4 °F 93% 29.86 in 6.2 mi Calm Calm - N/A   Overcast
7:50 AM 50.0 °F - 46.4 °F 87% 29.86 in 6.2 mi Calm Calm - N/A   Mostly Cloudy
8:20 AM 50.0 °F - 46.4 °F 87% 29.86 in 6.2 mi NW 3.5 mph - N/A   Mostly Cloudy
8:50 AM 51.8 °F - 48.2 °F 88% 29.86 in 6.2 mi Calm Calm - N/A   Mostly Cloudy
9:20 AM 55.4 °F - 48.2 °F 77% 29.89 in 6.2 mi Calm Calm - N/A   Mostly Cloudy
9:50 AM 62.6 °F - 44.6 °F 52% 29.89 in 6.2 mi SE 5.8 mph - N/A   Mostly Cloudy
10:00 AM 63 °F - 43 °F 37% 29.90 in 44 mi SSE 6.7 mph - -   Overcast
10:20 AM 64.4 °F - 46.4 °F 52% 29.89 in 6.2 mi South 4.6 mph - N/A   Mostly Cloudy
10:50 AM 64.4 °F - 42.8 °F 45% 29.89 in 6.2 mi SE 8.1 mph - N/A   Mostly Cloudy
11:20 AM 68.0 °F - 41.0 °F 37% 29.86 in 6.2 mi SSE 8.1 mph - N/A   Mostly Cloudy
11:50 AM 69.8 °F - 41.0 °F 35% 29.86 in 6.2 mi ESE 9.2 mph - N/A   Mostly Cloudy
12:20 PM 71.6 °F - 42.8 °F 35% 29.86 in 6.2 mi SSE 8.1 mph - N/A   Mostly Cloudy
12:50 PM 69.8 °F - 41.0 °F 35% 29.83 in 6.2 mi ESE 12.7 mph - N/A   Mostly Cloudy
1:00 PM 70 °F - 44 °F 28% 29.84 in 28 mi SE 11.2 mph - -   Scattered Clouds
1:20 PM 71.6 °F - 41.0 °F 33% 29.83 in 6.2 mi SE 6.9 mph - N/A   Mostly Cloudy
1:50 PM 69.8 °F - 42.8 °F 38% 29.83 in 6.2 mi SE 5.8 mph - N/A   Mostly Cloudy
2:20 PM 69.8 °F - 41.0 °F 35% 29.83 in 6.2 mi SE 9.2 mph - N/A   Mostly Cloudy
2:50 PM 69.8 °F - 41.0 °F 35% 29.83 in 6.2 mi East 6.9 mph - N/A   Mostly Cloudy
3:20 PM 68.0 °F - 41.0 °F 37% 29.83 in 6.2 mi ESE 5.8 mph - N/A   Mostly Cloudy
3:50 PM 68.0 °F - 41.0 °F 37% 29.80 in 6.2 mi ESE 8.1 mph - N/A   Mostly Cloudy
4:00 PM 67 °F - 39 °F 25% 29.82 in 6 mi SE 6.7 mph - -   Mostly Cloudy
4:20 PM 64.4 °F - 41.0 °F 42% 29.83 in 6.2 mi South 6.9 mph - N/A   Mostly Cloudy
4:50 PM 66.2 °F - 41.0 °F 40% 29.83 in 6.2 mi SE 11.5 mph - N/A   Mostly Cloudy
5:20 PM 66.2 °F - 41.0 °F 40% 29.83 in 6.2 mi SSE 6.9 mph - N/A   Mostly Cloudy
5:50 PM 66.2 °F - 39.2 °F 37% 29.83 in 6.2 mi SE 5.8 mph - N/A   Mostly Cloudy
6:20 PM 62.6 °F - 41.0 °F 45% 29.83 in 6.2 mi South 8.1 mph - N/A   Mostly Cloudy
6:50 PM 64.4 °F - 41.0 °F 42% 29.83 in 6.2 mi ESE 3.5 mph - N/A   Mostly Cloudy
7:00 PM 64 °F - 41 °F 31% 29.85 in 34 mi SSE 6.7 mph - -   Scattered Clouds
7:20 PM 66.2 °F - 41.0 °F 40% 29.86 in 6.2 mi SE 9.2 mph - N/A   Mostly Cloudy
7:50 PM 66.2 °F - 41.0 °F 40% 29.86 in 6.2 mi SSE 11.5 mph - N/A   Mostly Cloudy
8:20 PM 66.2 °F - 41.0 °F 40% 29.86 in 6.2 mi SE 6.9 mph - N/A   Mostly Cloudy
8:50 PM 64.4 °F - 41.0 °F 42% 29.89 in 6.2 mi South 16.1 mph - N/A   Mostly Cloudy
9:20 PM 62.6 °F - 41.0 °F 45% 29.89 in 6.2 mi South 9.2 mph - N/A   Scattered Clouds
9:50 PM 62.6 °F - 41.0 °F 45% 29.92 in 6.2 mi SSE 9.2 mph - N/A   Mostly Cloudy
10:00 PM 63 °F - 41 °F 33% 29.92 in 44 mi South 6.7 mph - -   Mostly Cloudy
10:20 PM 62.6 °F - 42.8 °F 48% 29.92 in 6.2 mi South 8.1 mph - N/A   Mostly Cloudy
10:50 PM 62.6 °F - 41.0 °F 45% 29.92 in 6.2 mi South 9.2 mph - N/A   Mostly Cloudy
11:20 PM 60.8 °F - 41.0 °F 48% 29.92 in 6.2 mi South 4.6 mph - N/A   Mostly Cloudy
11:50 PM 60.8 °F - 42.8 °F 52% 29.92 in 6.2 mi SSE 4.6 mph - N/A   Mostly Cloudy